Location: Civís
(42.4648°N, 1.4232°E)
Time: 18:03:43
(UTC+00:00)

Cosmos 1441 Rocket - Pass Details

Date: 18 November 2025
Orbit: 425 x 449 km, 81.1° (Epoch: 04 December)

Event Time Altitude Azimuth Distance (km) Brightness Sun altitude
Rises 17:36:21 0° 329° (NNW) 2,407 6.8 -12.4°
Reaches altitude 10° 17:39:11 10° 302° (WNW) 1,539 6.2 -12.9°
Maximum altitude 17:40:55 14° 271° (W) 1,335 6.5 -13.2°
Drops below altitude 10° 17:42:39 10° 239° (WSW) 1,539 6.9 -13.5°
Sets 17:45:29 0° 212° (SSW) 2,407 7.3 -14.0°
